| time (UTC) | temp F | wind direction | speed MPH | gust MPH | rain 1hr in | rain 24hr in | rain mn in | humidity % | barometer mb |
| 20260901031103 | 59 | 125 | 2.0 | 3.0 | 0.00 | 0.00 | 0.05 | 98 | 1013.3 |
| 20260901030552 | 59 | 126 | 1.0 | 2.0 | 0.01 | 0.00 | 0.05 | 99 | 1013.3 |
| 20260901030121 | 59 | 204 | 2.0 | 3.0 | 0.01 | 0.00 | 0.05 | 99 | 1013.5 |
| 20260901025532 | 59 | 128 | 1.0 | 4.0 | 0.01 | 0.00 | 0.05 | 99 | 1013.3 |
| 20260901025022 | 59 | 156 | 1.0 | 4.0 | 0.01 | 0.00 | 0.05 | 99 | 1013.5 |
| 20260901024514 | 59 | 170 | 1.0 | 3.0 | 0.01 | 0.00 | 0.05 | 99 | 1013.2 |
| 20260901024002 | 59 | 120 | 1.0 | 3.0 | 0.01 | 0.00 | 0.05 | 99 | 1013.3 |
| 20260901023454 | 59 | 167 | 0.0 | 2.0 | 0.01 | 0.00 | 0.05 | 99 | 1013.1 |
| 20260901022942 | 59 | 125 | 1.0 | 3.0 | 0.01 | 0.00 | 0.05 | 99 | 1013.3 |
| 20260901022434 | 58 | 177 | 1.0 | 2.0 | 0.01 | 0.00 | 0.05 | 99 | 1013.1 |
| 20260901021922 | 58 | 200 | 1.0 | 2.0 | 0.01 | 0.00 | 0.05 | 99 | 1013.0 |
| 20260901021412 | 58 | 123 | 0.0 | 2.0 | 0.00 | 0.00 | 0.04 | 99 | 1013.3 |
| 20260901015332 | 58 | 154 | 1.0 | 1.0 | 0.00 | 0.00 | 0.04 | 99 | 1012.7 |
| 20260901014312 | 58 | 215 | 0.0 | 2.0 | 0.04 | 0.00 | 0.04 | 99 | 1013.2 |
| 20260901013802 | 58 | 261 | 1.0 | 4.0 | 0.04 | 0.00 | 0.04 | 99 | 1012.8 |
| 20260901013252 | 58 | 154 | 1.0 | 3.0 | 0.04 | 0.00 | 0.04 | 99 | 1012.6 |
| 20260901012742 | 58 | 341 | 1.0 | 2.0 | 0.04 | 0.00 | 0.04 | 98 | 1012.8 |
| 20260901011723 | 58 | 209 | 0.0 | 1.0 | 0.04 | 0.00 | 0.04 | 98 | 1012.8 |
| 20260901005134 | 60 | 169 | 2.0 | 3.0 | 0.03 | 0.00 | 0.03 | 94 | 1012.9 |
| 20260901004622 | 60 | 261 | 3.0 | 4.0 | 0.00 | 0.00 | 0.00 | 93 | 1012.8 |
| 20260901004113 | 59 | 285 | 2.0 | 3.0 | 0.00 | 0.00 | 0.00 | 93 | 1012.8 |
| 20260901003602 | 59 | 142 | 2.0 | 3.0 | 0.00 | 0.00 | 0.00 | 93 | 1012.8 |
| 20260901002542 | 59 | 116 | 2.0 | 4.0 | 0.00 | 0.00 | 0.00 | 93 | 1012.8 |
| 20260901002110 | 59 | 180 | 0.0 | 2.0 | 0.00 | 0.00 | 0.00 | 93 | 1013.1 |
| 20260901001522 | 59 | 135 | 0.0 | 2.0 | 0.00 | 0.00 | 0.00 | 93 | 1012.8 |
| 20260901001012 | 59 | 195 | 0.0 | 3.0 | 0.00 | 0.00 | 0.00 | 93 | 1013.0 |
| 20260901000502 | 59 | 108 | 1.0 | 1.0 | 0.00 | 0.00 | 0.00 | 94 | 1012.8 |
| 20260831235953 | 59 | 184 | 1.0 | 2.0 | 0.00 | 0.00 | 0.00 | 94 | 1012.9 |
| 20260831234932 | 59 | 185 | 1.0 | 2.0 | 0.00 | 0.00 | 0.00 | 94 | 1012.9 |
| 20260831234422 | 59 | 257 | 0.0 | 1.0 | 0.00 | 0.00 | 0.00 | 94 | 1012.8 |
| 20260831233912 | 59 | 206 | 1.0 | 2.0 | 0.00 | 0.00 | 0.00 | 94 | 1012.7 |
| 20260831233403 | 59 | 30 | 0.0 | 1.0 | 0.00 | 0.00 | 0.00 | 94 | 1012.7 |
| 20260831232342 | 58 | 237 | 0.0 | 1.0 | 0.00 | 0.00 | 0.00 | 94 | 1012.6 |
| 20260831231832 | 58 | 228 | 1.0 | 2.0 | 0.00 | 0.00 | 0.00 | 94 | 1012.7 |
| 20260831230812 | 58 | 194 | 0.0 | 1.0 | 0.00 | 0.00 | 0.00 | 94 | 1012.8 |
| 20260831230302 | 59 | 261 | 0.0 | 1.0 | 0.00 | 0.00 | 0.00 | 93 | 1012.8 |
| 20260831225752 | 59 | 186 | 0.0 | 2.0 | 0.00 | 0.00 | 0.00 | 93 | 1012.7 |
| 20260831225242 | 59 | 284 | 0.0 | 1.0 | 0.00 | 0.00 | 0.00 | 93 | 1012.7 |
| 20260831224259 | 59 | 221 | 1.0 | 1.0 | 0.00 | 0.00 | 0.00 | 92 | 1012.7 |
| 20260831223712 | 59 | 175 | 1.0 | 3.0 | 0.00 | 0.00 | 0.00 | 91 | 1012.8 |
| 20260831223240 | 59 | 208 | 1.0 | 1.0 | 0.00 | 0.00 | 0.00 | 91 | 1012.4 |
| 20260831222653 | 59 | 198 | 0.0 | 1.0 | 0.00 | 0.00 | 0.00 | 91 | 1012.6 |
| 20260831222220 | 60 | 220 | 1.0 | 1.0 | 0.00 | 0.00 | 0.00 | 91 | 1012.5 |
| 20260831221633 | 60 | 197 | 0.0 | 1.0 | 0.00 | 0.00 | 0.00 | 91 | 1012.4 |
| 20260831221121 | 60 | 196 | 0.0 | 2.0 | 0.00 | 0.00 | 0.00 | 91 | 1012.5 |
| 20260831215551 | 60 | 108 | 1.0 | 2.0 | 0.00 | 0.00 | 0.10 | 91 | 1012.7 |
| 20260831215042 | 60 | 251 | 1.0 | 1.0 | 0.00 | 0.00 | 0.10 | 91 | 1012.4 |
| 20260831214531 | 60 | 193 | 1.0 | 2.0 | 0.00 | 0.00 | 0.10 | 91 | 1012.4 |
| 20260831214100 | 60 | 227 | 0.0 | 2.0 | 0.00 | 0.00 | 0.10 | 92 | 1012.5 |
| 20260831213511 | 60 | 173 | 0.0 | 2.0 | 0.00 | 0.00 | 0.10 | 92 | 1012.4 |
| 20260831213001 | 60 | 209 | 0.0 | 1.0 | 0.00 | 0.00 | 0.10 | 92 | 1012.7 |
| 20260831212453 | 60 | 165 | 0.0 | 1.0 | 0.00 | 0.00 | 0.10 | 93 | 1012.4 |
| 20260831211431 | 60 | 204 | 0.0 | 1.0 | 0.00 | 0.00 | 0.10 | 94 | 1012.4 |
| 20260831210411 | 60 | 211 | 0.0 | 0.0 | 0.00 | 0.00 | 0.10 | 94 | 1012.4 |
| 20260831205351 | 60 | 193 | 0.0 | 1.0 | 0.00 | 0.00 | 0.10 | 94 | 1012.1 |
| 20260831204409 | 60 | 204 | 0.0 | 0.0 | 0.00 | 0.00 | 0.10 | 94 | 1011.8 |
| 20260831203433 | 60 | 201 | 0.0 | 1.0 | 0.00 | 0.00 | 0.10 | 94 | 1011.7 |
| 20260831202801 | 60 | 252 | 0.0 | 1.0 | 0.00 | 0.00 | 0.10 | 94 | 1011.7 |
| 20260831202330 | 60 | 198 | 0.0 | 1.0 | 0.00 | 0.00 | 0.10 | 94 | 1011.6 |
| 20260831201743 | 60 | 204 | 0.0 | 1.0 | 0.00 | 0.00 | 0.10 | 94 | 1011.7 |
| 20260831201231 | 60 | 200 | 0.0 | 0.0 | 0.00 | 0.00 | 0.10 | 93 | 1011.6 |
| 20260831200721 | 60 | 194 | 0.0 | 0.0 | 0.00 | 0.00 | 0.10 | 93 | 1011.6 |
| 20260831200211 | 60 | 205 | 0.0 | 1.0 | 0.00 | 0.00 | 0.10 | 93 | 1011.6 |
| 20260831195229 | 60 | 200 | 0.0 | 0.0 | 0.00 | 0.00 | 0.10 | 92 | 1011.2 |
| 20260831194131 | 60 | 224 | 0.0 | 1.0 | 0.00 | 0.00 | 0.10 | 92 | 1011.5 |
| 20260831193111 | 60 | 201 | 1.0 | 1.0 | 0.00 | 0.00 | 0.10 | 95 | 1011.4 |
| 20260831192601 | 60 | 201 | 1.0 | 1.0 | 0.00 | 0.00 | 0.10 | 95 | 1011.4 |
| 20260831192129 | 60 | 164 | 0.0 | 1.0 | 0.00 | 0.00 | 0.10 | 95 | 1011.4 |
| 20260831191541 | 60 | 196 | 0.0 | 0.0 | 0.01 | 0.00 | 0.10 | 94 | 1011.3 |
| 20260831191031 | 60 | 182 | 1.0 | 1.0 | 0.02 | 0.00 | 0.10 | 94 | 1011.3 |
| 20260831190521 | 60 | 200 | 0.0 | 1.0 | 0.03 | 0.00 | 0.10 | 94 | 1011.1 |
| 20260831185502 | 61 | 175 | 0.0 | 0.0 | 0.03 | 0.00 | 0.10 | 93 | 1011.0 |
| 20260831184951 | 61 | 193 | 0.0 | 1.0 | 0.03 | 0.00 | 0.10 | 93 | 1011.0 |
| 20260831184009 | 61 | 186 | 0.0 | 1.0 | 0.03 | 0.00 | 0.10 | 92 | 1011.2 |
| 20260831183421 | 62 | 201 | 1.0 | 2.0 | 0.03 | 0.00 | 0.10 | 92 | 1011.2 |
| 20260831181419 | 65 | 207 | 0.0 | 2.0 | 0.01 | 0.00 | 0.08 | 85 | 1011.1 |
| 20260831180831 | 65 | 24 | 1.0 | 3.0 | 0.00 | 0.00 | 0.07 | 83 | 1011.3 |
| 20260831180321 | 65 | 167 | 3.0 | 6.0 | 0.00 | 0.00 | 0.07 | 82 | 1011.4 |
| 20260831175849 | 64 | 282 | 2.0 | 3.0 | 0.00 | 0.00 | 0.07 | 85 | 1011.4 |
| 20260831174751 | 64 | 189 | 1.0 | 2.0 | 0.00 | 0.00 | 0.07 | 86 | 1010.9 |
| 20260831173221 | 64 | 197 | 0.0 | 2.0 | 0.00 | 0.00 | 0.07 | 86 | 1010.5 |
| 20260831172201 | 64 | 162 | 0.0 | 1.0 | 0.00 | 0.00 | 0.07 | 85 | 1010.6 |
| 20260831171142 | 64 | 169 | 1.0 | 1.0 | 0.02 | 0.00 | 0.07 | 83 | 1010.4 |
| 20260831170243 | 68 | 82 | 2.0 | 6.0 | 0.02 | 0.00 | 0.07 | 75 | 1010.6 |
| 20260831165101 | 68 | 192 | 1.0 | 2.0 | 0.02 | 0.00 | 0.07 | 78 | 1010.2 |